THOR ABLESTAR DEB, 327

Orbit data source: Space-Track

THOR ABLESTAR DEB, 327 is space debris in LEO originally from a launch on Thu, 29 Jun 1961 UTC launched from the Air Force Eastern Test Range (AFETR). Debris objects in space refer to the collection of defunct objects orbiting the Earth. Examples of debris include non-operational satellites, rocket bodies, and fragments generated from explosions, collisions, or faulty payload assembly.

Loading next visibility...
Identifier
327, 1961-015DD
Orbit
LEO
Country
Flag of USUS
Related business
Manufacturer
Unknown
Mission
Spacecraft
Bus & Motor
Unknown
Mass
Unknown
Launch date (UTC)
1961-06-29 (64 years ago)
Launch vehicle
Unknown
Launch site
Air Force Eastern Test Range (AFETR)
Object type
Payload
Rocket body
Debris
Shape & HBR
Unknown shape, 0.1 m
Radar Cross Section
Small (<0.1 m²)

Expand to show TLE details & history
Last TLE update: 11 hours ago

TLE from 11 hours ago
0 THOR ABLESTAR DEB
1 00327U 61015DD  25311.07612480  .00000220  00000-0  22537-3 0  9991
2 00327  66.5426 215.9861 0119564 276.4011  82.3462 13.90754229255854
Epoch: 2025-11-07T01:49Z
TLE epoch observation values (Epoch: 2025-11-07T01:49:37.182Z)
Latitude
-0°
Longitude
142.05589°
Altitude
917.441 km
Speed
7.399 km/s
True Right ascension
14h 23m 56s
True Declination
0° 00' 00"
Sunlit
Object was in daylight at epoch
Visualization orbit readout
Latitude
Unknown
Longitude
Unknown
Altitude
Unknown
Speed
Unknown
Apparent Right ascension
Unknown
Apparent Declination
Unknown
Sunlit
N/A
Visualization observer readout
Local Sidereal Time
08:36:27
Azimuth
Unknown
Elevation
Unknown
Doppler factor
Unknown
Orbital elements
Apogee altitude
1,011.724 km
Perigee altitude
837.099 km
Semi-major axis
7,302.549 km
Eccentricity
0.01196
Inclination
66.5426°
RAAN
215.9861°
Arg. of periapsis
276.4011°
True anomaly
83.70668°
Mean anomaly
82.3462°
Eccentric anomaly
83.02618°
Mean motion
3.47802 °/min
Orbital period
103.51 mins
BSTAR
0.00022537
Loading maneuver chart data...
Computing Atmospheric mass density...

Documentation

Showing up to 5 results
|